Location: Saint-Usage
(47.1052°N, 5.2587°E)
Time: 02:15:04
(UTC+01:00)

NOAA 19 - Pass Details

Date: 30 November 2021
Orbit: 841 x 860 km, 99.2° (Epoch: 17 January)

Event Time Altitude Azimuth Distance (km) Brightness Sun altitude
Rises 20:21:32 0° 199° (SSW) 3,383 8.5 -34.9°
Reaches altitude 10° 20:24:18 10° 212° (SSW) 2,454 7.9 -35.4°
Maximum altitude 20:28:42 25° 267° (W) 1,651 7.2 -36.1°
Drops below altitude 10° 20:33:08 10° 321° (NW) 2,472 8.1 -36.9°
Sets 20:35:57 0° 335° (NNW) 3,415 8.7 -37.4°
